Location: Goheenville
(40.9070°N, 79.3720°W)
Time: 00:53:13
(UTC-04:00)

Cosmos 1727 Rocket - Visible Passes

Search period start: 29 July 2015 00:00
Search period end: 08 August 2015 00:00
Orbit: 960 x 997 km, 82.9° (Epoch: 28 July)

Date Brightness Start Highest point End Pass type
(mag) Time Alt. Az. Time Alt. Az. Time Alt. Az.
29 Jul 5.5 05:04:01 10° SSE 05:09:31 37° E 05:15:08 10° NNE visible
30 Jul 4.4 05:29:38 10° S 05:35:44 69° E 05:41:53 10° NNE visible
31 Jul 6.4 04:13:26 10° ESE 04:17:12 18° E 04:21:15 10° NE visible
01 Aug 5.6 04:37:55 10° SSE 04:43:16 33° E 04:48:44 10° NNE visible
02 Aug 4.5 05:03:25 10° S 05:09:27 62° E 05:15:33 10° NNE visible
03 Aug 6.4 03:47:38 10° ESE 03:50:58 16° E 03:54:38 10° NE visible
03 Aug 4.0 05:29:39 10° SSW 05:35:48 73° W 05:41:59 10° N visible
04 Aug 5.7 04:11:51 10° SE 04:17:00 30° E 04:22:19 10° NNE visible
05 Aug 4.6 04:37:13 10° SSE 04:43:10 56° E 04:49:13 10° NNE visible
06 Aug 6.4 03:21:55 10° ESE 03:24:44 14° E 03:27:56 10° NE visible
06 Aug 3.9 05:03:20 10° S 05:09:29 81° W 05:15:43 10° N visible
07 Aug 5.7 03:45:49 10° SE 03:50:45 27° E 03:55:52 10° NNE visible
07 Aug 4.4 05:30:09 10° SSW 05:36:00 44° WNW 05:41:52 10° N visible
